This demonstration page uses our WeatherBlox Daily Observations layout. Learn more.

Hourly Observations for June 4, 2019

Temp ( °F °C ) Dew Point ( °F °C ) Humidity (%) Winds ( mph kmh ) Pressure ( in mb ) Visibility ( mi km ) Precip ( " mm )
12:15 am 00:15 Clear 55 13 45 7 67 67 Calm 30.12 1020 10 16.09344 0 0
12:35 am 00:35 Clear 54 12 45 7 72 72 Calm 30.15 1021 10 16.09344 0 0
12:55 am 00:55 Clear 55 13 43 6 63 63 NNW 3 6 30.15 1021 10 16.09344 0 0
1:15 am 01:15 Clear 52 11 46 8 82 82 Calm 30.15 1021 10 16.09344 0 0
1:35 am 01:35 Clear 54 12 46 8 77 77 NE 5 7 30.12 1020 10 16.09344 0 0
1:55 am 01:55 Clear 52 11 45 7 77 77 Calm 30.12 1020 10 16.09344 0 0
2:15 am 02:15 Clear 48 9 46 8 94 94 Calm 30.18 1022 10 16.09344 0 0
2:35 am 02:35 Clear 46 8 46 8 100 100 NW 3 6 30.18 1022 10 16.09344 0 0
2:55 am 02:55 Clear 50 10 46 8 88 88 NNW 6 9 30.15 1021 10 16.09344 0 0
3:15 am 03:15 Clear 50 10 46 8 88 88 NNW 7 11 30.18 1022 10 16.09344 0 0
3:35 am 03:35 Clear 50 10 46 8 88 88 Calm 30.18 1022 10 16.09344 0 0
3:55 am 03:55 Clear 50 10 45 7 82 82 Calm 30.18 1022 10 16.09344 0 0
4:15 am 04:15 Clear 46 8 45 7 93 93 W 5 7 30.18 1022 10 16.09344 0 0
4:35 am 04:35 Clear 46 8 46 8 100 100 Calm 30.18 1022 10 16.09344 0 0
4:55 am 04:55 Clear 48 9 45 7 87 87 Calm 30.18 1022 10 16.09344 0 0
5:15 am 05:15 Clear 48 9 45 7 87 87 SW 3 6 30.21 1023 10 16.09344 0 0
5:35 am 05:35 Clear 48 9 45 7 87 87 SW 3 6 30.21 1023 10 16.09344 0 0
5:55 am 05:55 Sunny 46 8 45 7 93 93 SW 5 7 30.21 1023 10 16.09344 0 0
6:15 am 06:15 Sunny 46 8 45 7 93 93 Calm 30.21 1023 10 16.09344 0 0
6:35 am 06:35 Sunny 50 10 45 7 82 82 Calm 30.24 1024 10 16.09344 0 0
6:55 am 06:55 Sunny 52 11 45 7 77 77 Calm 30.24 1024 10 16.09344 0 0
7:15 am 07:15 Sunny 54 12 46 8 77 77 Calm 30.21 1023 10 16.09344 0 0
7:35 am 07:35 Sunny 55 13 46 8 72 72 Calm 30.21 1023 10 16.09344 0 0
7:55 am 07:55 Sunny 55 13 46 8 72 72 Calm 30.21 1023 10 16.09344 0 0
8:15 am 08:15 Sunny 59 15 46 8 63 63 Calm 30.24 1024 10 16.09344 0 0
8:35 am 08:35 Sunny 61 16 45 7 55 55 NNW 3 6 30.24 1024 10 16.09344 0 0
8:55 am 08:55 Sunny 63 17 45 7 52 52 NNE 3 6 30.24 1024 10 16.09344 0 0
9:15 am 09:15 Sunny 63 17 45 7 52 52 NW 6 9 30.24 1024 10 16.09344 0 0
9:35 am 09:35 Sunny 64 18 45 7 49 49 Calm 30.24 1024 10 16.09344 0 0
9:55 am 09:55 Sunny 64 18 43 6 46 46 Calm 30.21 1023 10 16.09344 0 0
10:15 am 10:15 Sunny 66 19 41 5 40 40 N 3 6 30.21 1023 10 16.09344 0 0
10:35 am 10:35 Sunny 68 20 43 6 40 40 Calm 30.21 1023 10 16.09344 0 0
10:55 am 10:55 Sunny 68 20 43 6 40 40 N 5 7 30.21 1023 10 16.09344 0 0
11:15 am 11:15 Sunny 70 21 43 6 38 38 Calm 30.21 1023 10 16.09344 0 0
11:35 am 11:35 Sunny 70 21 45 7 40 40 WNW 7 11 30.21 1023 10 16.09344 0 0
11:55 am 11:55 Sunny 70 21 46 8 43 43 NW 3 6 30.18 1022 10 16.09344 0 0
12:15 pm 12:15 Sunny 72 22 45 7 38 38 NNW 6 9 30.18 1022 10 16.09344 0 0
12:35 pm 12:35 Sunny 70 21 45 7 40 40 WSW 9 15 30.18 1022 10 16.09344 0 0
12:55 pm 12:55 Sunny 72 22 46 8 41 41 Calm 30.18 1022 10 16.09344 0 0
1:15 pm 13:15 Sunny 72 22 46 8 41 41 WSW 8 13 30.15 1021 10 16.09344 0 0
1:35 pm 13:35 Sunny 73 23 46 8 38 38 W 5 7 30.15 1021 10 16.09344 0 0
1:55 pm 13:55 Sunny 73 23 45 7 36 36 W 6 9 30.15 1021 10 16.09344 0 0
2:15 pm 14:15 Sunny 73 23 45 7 36 36 Calm 30.15 1021 10 16.09344 0 0
2:35 pm 14:35 Sunny 75 24 48 9 39 39 W 3 6 30.15 1021 10 16.09344 0 0
2:55 pm 14:55 Sunny 75 24 48 9 39 39 SSW 3 6 30.15 1021 10 16.09344 0 0
3:15 pm 15:15 Sunny 77 25 48 9 36 36 W 6 9 30.12 1020 10 16.09344 0 0
3:35 pm 15:35 Sunny 77 25 50 10 39 39 W 8 13 30.12 1020 10 16.09344 0 0
3:55 pm 15:55 Sunny 77 25 50 10 39 39 SSW 7 11 30.09 1019 10 16.09344 0 0
4:15 pm 16:15 Sunny 77 25 50 10 39 39 WSW 8 13 30.09 1019 10 16.09344 0 0
4:35 pm 16:35 Sunny 77 25 52 11 42 42 WSW 9 15 30.09 1019 10 16.09344 0 0
4:55 pm 16:55 Sunny 77 25 52 11 42 42 SSW 12 19 30.09 1019 10 16.09344 0 0
5:15 pm 17:15 Sunny 79 26 54 12 42 42 SSW 7 11 30.06 1018 10 16.09344 0 0
5:35 pm 17:35 Sunny 77 25 52 11 42 42 SW 7 11 30.06 1018 10 16.09344 0 0
5:55 pm 17:55 Sunny 77 25 54 12 44 44 S 10 17 30.06 1018 10 16.09344 0 0
6:15 pm 18:15 Sunny 77 25 54 12 44 44 SW 9 15 30.06 1018 10 16.09344 0 0
6:35 pm 18:35 Sunny 77 25 54 12 44 44 S 8 13 30.06 1018 10 16.09344 0 0
6:55 pm 18:55 Sunny 75 24 54 12 47 47 SSW 6 9 30.06 1018 10 16.09344 0 0
7:15 pm 19:15 Sunny 75 24 54 12 47 47 SSW 6 9 30.06 1018 10 16.09344 0 0
7:35 pm 19:35 Sunny 73 23 55 13 53 53 S 5 7 30.06 1018 10 16.09344 0 0
7:55 pm 19:55 Sunny 73 23 55 13 53 53 S 7 11 30.06 1018 10 16.09344 0 0
8:15 pm 20:15 Sunny 73 23 55 13 53 53 S 7 11 30.06 1018 10 16.09344 0 0
8:35 pm 20:35 Clear 72 22 54 12 53 53 S 7 11 30.06 1018 10 16.09344 0 0
8:55 pm 20:55 Clear 72 22 54 12 53 53 S 7 11 30.03 1017 10 16.09344 0 0
9:15 pm 21:15 Clear 70 21 54 12 57 57 S 7 11 30.03 1017 10 16.09344 0 0
9:35 pm 21:35 Clear 70 21 54 12 57 57 S 8 13 30.03 1017 10 16.09344 0 0
9:55 pm 21:55 Clear 68 20 54 12 60 60 S 8 13 30.03 1017 10 16.09344 0 0
10:15 pm 22:15 Clear 68 20 54 12 60 60 SSW 7 11 30.03 1017 10 16.09344 0 0
10:35 pm 22:35 Clear 68 20 54 12 60 60 SSW 7 11 30.03 1017 10 16.09344 0 0
10:55 pm 22:55 Clear 68 20 54 12 60 60 SSW 6 9 30.03 1017 10 16.09344 0 0
11:15 pm 23:15 Clear 68 20 54 12 60 60 SSW 6 9 30.03 1017 10 16.09344 0 0
11:35 pm 23:35 Clear 68 20 55 13 64 64 SSW 7 11 30.03 1017 10 16.09344 0 0
11:55 pm 23:55 Clear 68 20 55 13 64 64 SSW 7 11 30.03 1017 10 16.09344 0 0

Powered by AerisWeather